EDV1246 KDTW-KCLE

Flight info

Callsign EDV1246
Flight time 0h 24m
Altitude 15000
Route KZLOV2 WINNZ BRWNZ4
Aircraft CRJ7/M-SDFGIRWY/S

Departure

Time 2026-05-08 01:32
Airport Detroit Metropolitan Wayne County Airport (KDTW)

Arrival

Time 2026-05-08 01:57
Airport Cleveland Hopkins International Airport (KCLE)
Time Latitude Longitude Altitude Speed Heading
2026-05-08 01:00 42.21245 -83.35880 647 ft 0 kts 297°
2026-05-08 01:21 42.21242 -83.35871 647 ft 4 kts 299°
2026-05-08 01:21 42.21226 -83.35843 651 ft 4 kts 318°
2026-05-08 01:21 42.21204 -83.35830 649 ft 4 kts
2026-05-08 01:22 42.21193 -83.35834 649 ft 0 kts 28°
2026-05-08 01:26 42.21224 -83.35812 647 ft 9 kts 28°
2026-05-08 01:26 42.21303 -83.35755 647 ft 15 kts 28°
2026-05-08 01:26 42.21397 -83.35687 649 ft 16 kts 28°
2026-05-08 01:26 42.21495 -83.35614 647 ft 16 kts 29°
2026-05-08 01:27 42.21545 -83.35522 647 ft 13 kts 80°
2026-05-08 01:27 42.21548 -83.35437 647 ft 14 kts 88°
2026-05-08 01:27 42.21551 -83.35299 647 ft 15 kts 88°
2026-05-08 01:27 42.21554 -83.35153 647 ft 16 kts 88°
2026-05-08 01:28 42.21628 -83.34994 649 ft 15 kts 46°
2026-05-08 01:28 42.21709 -83.34886 650 ft 21 kts 43°
2026-05-08 01:28 42.21825 -83.34732 650 ft 17 kts 62°
2026-05-08 01:28 42.21838 -83.34624 648 ft 18 kts 88°
2026-05-08 01:29 42.21881 -83.34485 648 ft 17 kts 31°
2026-05-08 01:29 42.21992 -83.34402 648 ft 20 kts 28°
2026-05-08 01:29 42.22120 -83.34308 649 ft 22 kts 29°
2026-05-08 01:29 42.22252 -83.34210 648 ft 22 kts 28°
2026-05-08 01:30 42.22388 -83.34109 647 ft 23 kts 28°
2026-05-08 01:30 42.22527 -83.34007 649 ft 23 kts 29°
2026-05-08 01:30 42.22667 -83.33903 649 ft 23 kts 29°
2026-05-08 01:30 42.22800 -83.33804 648 ft 19 kts 28°
2026-05-08 01:31 42.22860 -83.33739 647 ft 7 kts 82°
2026-05-08 01:31 42.22839 -83.33679 648 ft 8 kts 126°
2026-05-08 01:31 42.22793 -83.33644 648 ft 8 kts 188°
2026-05-08 01:31 42.22745 -83.33676 649 ft 7 kts 208°
2026-05-08 01:32 42.22642 -83.33752 649 ft 43 kts 210°
2026-05-08 01:32 42.22146 -83.34118 649 ft 117 kts 208°
2026-05-08 01:32 42.21271 -83.34764 686 ft 168 kts 208°
2026-05-08 01:32 42.20191 -83.35426 1355 ft 173 kts 205°
2026-05-08 01:33 42.19048 -83.36017 2164 ft 179 kts 204°
2026-05-08 01:33 42.17830 -83.36624 2585 ft 200 kts 205°
2026-05-08 01:33 42.16354 -83.36925 2919 ft 235 kts 172°
2026-05-08 01:33 42.14787 -83.35954 3393 ft 260 kts 154°
2026-05-08 01:34 42.13059 -83.35192 3968 ft 267 kts 179°
2026-05-08 01:34 42.11186 -83.35101 4647 ft 265 kts 182°
2026-05-08 01:34 42.09358 -83.35050 5251 ft 265 kts 182°
2026-05-08 01:34 42.07488 -83.35006 5884 ft 266 kts 182°
2026-05-08 01:35 42.05652 -83.34750 6447 ft 272 kts 165°
2026-05-08 01:35 42.04072 -83.33273 6756 ft 289 kts 131°
2026-05-08 01:35 42.02984 -83.30961 6910 ft 292 kts 115°
2026-05-08 01:35 42.02435 -83.28334 6971 ft 294 kts 102°
2026-05-08 01:36 42.02088 -83.25605 6995 ft 296 kts 99°
2026-05-08 01:36 42.01774 -83.22883 7001 ft 294 kts 99°
2026-05-08 01:36 42.01466 -83.20205 6999 ft 293 kts 100°
2026-05-08 01:36 42.01338 -83.17481 7063 ft 288 kts 83°
2026-05-08 01:37 42.01653 -83.14816 7428 ft 289 kts 77°
2026-05-08 01:37 42.02079 -83.12148 7940 ft 297 kts 76°
2026-05-08 01:37 42.02538 -83.09383 8468 ft 304 kts 76°
2026-05-08 01:37 42.02982 -83.06590 8774 ft 308 kts 77°
2026-05-08 01:38 42.03395 -83.03718 8908 ft 318 kts 78°
2026-05-08 01:38 42.03790 -83.00758 8965 ft 318 kts 79°
2026-05-08 01:38 42.04169 -82.97923 8977 ft 306 kts 78°
2026-05-08 01:38 42.04537 -82.95149 8983 ft 299 kts 78°
2026-05-08 01:39 42.04911 -82.92361 8991 ft 306 kts 78°
2026-05-08 01:39 42.05290 -82.89509 8995 ft 312 kts 78°
2026-05-08 01:39 42.05678 -82.86613 9000 ft 317 kts 78°
2026-05-08 01:39 42.06071 -82.83673 9003 ft 319 kts 78°
2026-05-08 01:40 42.06461 -82.80733 9001 ft 319 kts 79°
2026-05-08 01:40 42.06850 -82.77795 9001 ft 317 kts 78°
2026-05-08 01:40 42.06923 -82.74852 8992 ft 316 kts 102°
2026-05-08 01:40 42.06008 -82.72229 9003 ft 308 kts 131°
2026-05-08 01:41 42.04530 -82.70229 9361 ft 299 kts 144°
2026-05-08 01:41 42.02916 -82.68497 9966 ft 297 kts 148°
2026-05-08 01:41 42.01238 -82.66821 10549 ft 304 kts 149°
2026-05-08 01:41 41.99526 -82.65108 11139 ft 310 kts 149°
2026-05-08 01:42 41.97789 -82.63344 11746 ft 315 kts 148°
2026-05-08 01:42 41.96049 -82.61507 12381 ft 320 kts 148°
2026-05-08 01:42 41.94297 -82.59648 13021 ft 322 kts 147°
2026-05-08 01:42 41.92663 -82.57605 13626 ft 333 kts 130°
2026-05-08 01:43 41.91648 -82.54769 14181 ft 341 kts 109°
2026-05-08 01:43 41.91023 -82.51664 14641 ft 349 kts 103°
2026-05-08 01:43 41.90493 -82.48417 14850 ft 365 kts 102°
2026-05-08 01:43 41.89940 -82.44995 14955 ft 383 kts 103°
2026-05-08 01:44 41.89304 -82.41425 14999 ft 402 kts 105°
2026-05-08 01:44 41.88575 -82.37770 15028 ft 409 kts 105°
2026-05-08 01:44 41.87831 -82.34056 15029 ft 414 kts 105°
2026-05-08 01:44 41.87103 -82.30401 15021 ft 393 kts 105°
2026-05-08 01:45 41.86411 -82.26924 14959 ft 378 kts 105°
2026-05-08 01:45 41.85735 -82.23539 14544 ft 375 kts 105°
2026-05-08 01:45 41.84950 -82.20243 14013 ft 375 kts 117°
2026-05-08 01:45 41.83648 -82.17210 13340 ft 376 kts 127°
2026-05-08 01:46 41.82164 -82.14304 12627 ft 377 kts 128°
2026-05-08 01:46 41.80694 -82.11414 12095 ft 373 kts 127°
2026-05-08 01:46 41.79246 -82.08545 11588 ft 369 kts 127°
2026-05-08 01:46 41.77831 -82.05742 11093 ft 357 kts 127°
2026-05-08 01:47 41.76467 -82.03032 10630 ft 347 kts 127°
2026-05-08 01:47 41.75124 -82.00363 10183 ft 344 kts 127°
2026-05-08 01:47 41.73807 -81.97754 9741 ft 340 kts 127°
2026-05-08 01:48 41.71249 -81.92676 8739 ft 317 kts 126°
2026-05-08 01:48 41.70032 -81.90266 8243 ft 308 kts 126°
2026-05-08 01:48 41.68850 -81.87922 7762 ft 299 kts 126°
2026-05-08 01:48 41.67702 -81.85639 7294 ft 295 kts 126°
2026-05-08 01:49 41.66552 -81.83360 6834 ft 296 kts 126°
2026-05-08 01:49 41.65398 -81.81088 6391 ft 295 kts 126°
2026-05-08 01:49 41.64260 -81.78849 5908 ft 286 kts 126°
2026-05-08 01:49 41.63158 -81.76680 5443 ft 277 kts 126°
2026-05-08 01:50 41.62100 -81.74602 5185 ft 262 kts 126°
2026-05-08 01:50 41.61113 -81.72652 5075 ft 244 kts 126°
2026-05-08 01:50 41.60133 -81.70920 5021 ft 223 kts 137°
2026-05-08 01:50 41.59054 -81.69467 4936 ft 225 kts 139°
2026-05-08 01:51 41.57901 -81.67997 4533 ft 232 kts 140°
2026-05-08 01:51 41.56702 -81.66498 4100 ft 239 kts 140°
2026-05-08 01:51 41.55468 -81.64972 3666 ft 244 kts 140°
2026-05-08 01:51 41.54142 -81.63572 3297 ft 240 kts 158°
2026-05-08 01:52 41.52590 -81.63179 3143 ft 218 kts 192°
2026-05-08 01:52 41.51290 -81.63907 3086 ft 196 kts 219°
2026-05-08 01:52 41.50391 -81.65134 3046 ft 176 kts 250°
2026-05-08 01:52 41.50015 -81.66647 3034 ft 169 kts 256°
2026-05-08 01:53 41.49700 -81.68086 3015 ft 154 kts 257°
2026-05-08 01:53 41.49431 -81.69391 2993 ft 141 kts 259°
2026-05-08 01:53 41.49184 -81.70597 2974 ft 131 kts 259°
2026-05-08 01:53 41.48825 -81.71693 2960 ft 129 kts 238°
2026-05-08 01:54 41.48238 -81.72731 2887 ft 151 kts 238°
2026-05-08 01:54 41.47609 -81.73881 2561 ft 157 kts 239°
2026-05-08 01:54 41.46970 -81.75088 2278 ft 159 kts 238°
2026-05-08 01:54 41.46325 -81.76281 1962 ft 156 kts 238°
2026-05-08 01:55 41.45711 -81.77429 1695 ft 151 kts 238°
2026-05-08 01:55 41.45145 -81.78493 1748 ft 140 kts 238°
2026-05-08 01:55 41.44553 -81.79607 1785 ft 155 kts 238°
2026-05-08 01:55 41.43906 -81.80835 1726 ft 165 kts 238°
2026-05-08 01:56 41.43288 -81.81994 1539 ft 142 kts 238°
2026-05-08 01:56 41.42745 -81.82974 1304 ft 120 kts 233°
2026-05-08 01:56 41.42213 -81.83815 979 ft 125 kts 233°
2026-05-08 01:56 41.41629 -81.84742 847 ft 125 kts 233°
2026-05-08 01:57 41.41122 -81.85547 773 ft 99 kts 229°
2026-05-08 01:57 41.40773 -81.86109 776 ft 60 kts 230°
2026-05-08 01:57 41.40650 -81.86244 775 ft 20 kts 195°
2026-05-08 01:57 41.40550 -81.86233 774 ft 8 kts 144°
2026-05-08 01:58 41.40489 -81.86165 774 ft 15 kts 139°
2026-05-08 01:58 41.40393 -81.86058 773 ft 22 kts 140°
2026-05-08 01:58 41.40297 -81.85947 775 ft 5 kts 115°
2026-05-08 01:58 41.40299 -81.85919 775 ft 11 kts 69°
2026-05-08 01:59 41.40337 -81.85864 775 ft 12 kts 43°
2026-05-08 01:59 41.40412 -81.85750 775 ft 20 kts 50°
2026-05-08 01:59 41.40510 -81.85595 775 ft 24 kts 50°
2026-05-08 01:59 41.40624 -81.85414 774 ft 27 kts 50°
2026-05-08 02:00 41.40730 -81.85246 772 ft 19 kts 50°
2026-05-08 02:00 41.40806 -81.85125 772 ft 19 kts 50°
2026-05-08 02:00 41.40903 -81.84972 772 ft 24 kts 50°
2026-05-08 02:00 41.41015 -81.84795 773 ft 25 kts 49°
2026-05-08 02:01 41.41133 -81.84610 775 ft 25 kts 50°
2026-05-08 02:01 41.41247 -81.84428 774 ft 27 kts 50°
2026-05-08 02:01 41.41358 -81.84253 774 ft 17 kts 50°
2026-05-08 02:01 41.41364 -81.84127 774 ft 12 kts 104°
2026-05-08 02:02 41.41367 -81.84025 775 ft 4 kts 77°
2026-05-08 02:02 41.41371 -81.84001 775 ft 2 kts 81°
2026-05-08 02:02 41.41366 -81.83941 775 ft 9 kts 103°
2026-05-08 02:02 41.41358 -81.83895 775 ft 2 kts 102°
2026-05-08 02:03 41.41357 -81.83887 775 ft 0 kts 102°